EA1FBN Weather Reports


time (UTC)temp
F
wind
direction
speed
knots
gust
knots
rain 1hr
in
rain 24hr
in
rain mn
in
humidity
%
barometer
mb
20260503055020 50 24 0.0 0.0 0.00 0.06 0.00 61 1014.1
20260503054520 50 24 0.0 0.0 0.00 0.06 0.00 62 1014.1
20260503054020 50 24 0.9 0.9 0.00 0.06 0.00 62 1014.1
20260503053520 50 331 0.0 1.7 0.00 0.06 0.00 62 1014.1
20260503053020 50 329 0.0 1.7 0.00 0.06 0.00 62 1014.2
20260503052520 50 338 0.0 0.9 0.00 0.06 0.00 63 1014.2
20260503052020 50 338 0.0 0.9 0.00 0.06 0.00 63 1014.2
20260503051520 50 15 0.0 0.0 0.00 0.06 0.00 63 1014.2
20260503051020 50 15 0.0 0.9 0.00 0.06 0.00 64 1014.2
20260503050520 50 15 0.0 0.9 0.00 0.06 0.00 64 1014.2
20260503050020 50 15 0.0 0.9 0.00 0.06 0.00 64 1014.2
20260503045520 50 15 0.0 0.9 0.00 0.06 0.00 63 1014.1
20260503045020 50 18 0.0 0.9 0.00 0.06 0.00 63 1014.2
20260503044520 50 50 0.0 0.9 0.00 0.06 0.00 63 1014.3
20260503044020 50 74 0.0 0.0 0.00 0.06 0.00 64 1014.3
20260503043521 50 74 0.0 0.0 0.00 0.06 0.00 64 1014.4
20260503043021 50 75 0.0 0.9 0.00 0.06 0.00 64 1014.4
20260503042521 50 82 0.0 0.9 0.00 0.06 0.00 65 1014.4
20260503042021 50 82 0.0 0.9 0.00 0.06 0.00 65 1014.3
20260503041521 50 82 0.0 0.0 0.00 0.06 0.00 66 1014.3
20260503041021 50 82 0.0 0.0 0.00 0.06 0.00 66 1014.3
20260503040521 50 82 0.0 0.0 0.00 0.06 0.00 67 1014.4
20260503040021 50 82 0.0 0.0 0.00 0.06 0.00 67 1014.4
20260503035521 50 82 0.0 0.0 0.00 0.06 0.00 68 1014.4
20260503035021 50 82 0.0 0.0 0.00 0.06 0.00 68 1014.4
20260503034521 50 82 0.0 0.0 0.00 0.06 0.00 68 1014.4
20260503034021 50 82 0.0 0.9 0.00 0.06 0.00 68 1014.5
20260503033521 50 82 0.0 0.0 0.00 0.06 0.00 69 1014.6
20260503033021 50 82 0.0 0.9 0.00 0.06 0.00 69 1014.6
20260503032521 50 82 0.0 1.7 0.00 0.06 0.00 70 1014.6
20260503032021 51 102 0.0 0.9 0.00 0.06 0.00 70 1014.6
20260503031521 51 79 0.0 0.9 0.00 0.06 0.00 70 1014.6
20260503031021 51 79 0.0 0.9 0.00 0.06 0.00 71 1014.6
20260503030521 51 79 0.9 1.7 0.00 0.06 0.00 72 1014.6
20260503030021 51 84 0.9 1.7 0.00 0.06 0.00 72 1014.5
20260503025521 51 83 1.7 2.6 0.00 0.06 0.00 73 1014.6
20260503025021 51 100 3.5 6.1 0.00 0.06 0.00 74 1014.7
20260503024521 52 120 5.2 7.0 0.00 0.06 0.00 74 1014.8
20260503024021 52 98 6.1 10.4 0.00 0.06 0.00 75 1014.9
20260503023521 52 93 5.2 10.4 0.00 0.06 0.00 75 1015.1
20260503023021 52 100 3.5 7.8 0.00 0.06 0.00 75 1014.9
20260503022521 52 105 2.6 5.2 0.00 0.06 0.00 75 1014.8
20260503022021 52 108 1.7 4.3 0.00 0.06 0.00 75 1014.8
20260503021521 52 105 0.9 3.5 0.00 0.06 0.00 75 1014.7
20260503021021 52 91 0.9 2.6 0.00 0.06 0.00 75 1014.8
20260503020521 52 66 0.9 3.5 0.00 0.06 0.00 75 1014.8
20260503020021 51 66 0.0 2.6 0.00 0.06 0.00 75 1014.7
20260503015521 51 359 0.0 0.9 0.00 0.06 0.00 75 1014.7
20260503015021 51 359 0.0 0.9 0.00 0.06 0.00 75 1014.7
20260503014521 51 359 0.0 0.9 0.00 0.06 0.00 75 1014.7
20260503014021 51 359 0.0 0.9 0.00 0.06 0.00 75 1014.8
20260503013521 51 359 0.0 0.9 0.00 0.06 0.00 75 1014.9
20260503013021 51 0 0.0 0.9 0.00 0.06 0.00 75 1014.8
20260503012521 52 0 0.0 0.9 0.00 0.06 0.00 75 1014.8
20260503012021 52 359 0.9 1.7 0.00 0.06 0.00 75 1014.8
20260503011521 52 8 0.0 1.7 0.00 0.06 0.00 75 1014.8
20260503011021 52 353 0.9 1.7 0.00 0.06 0.00 75 1014.8
20260503010521 52 1 0.9 2.6 0.00 0.06 0.00 75 1014.9
20260503010021 52 342 0.9 2.6 0.00 0.06 0.00 75 1014.9
20260503005521 52 349 0.9 1.7 0.00 0.06 0.00 75 1015.0
20260503005021 52 52 0.9 3.5 0.00 0.06 0.00 75 1015.2
20260503004521 52 55 0.9 1.7 0.00 0.06 0.00 75 1015.2
20260503004021 52 57 0.9 1.7 0.00 0.06 0.00 75 1015.2
20260503003521 51 56 0.9 1.7 0.00 0.06 0.00 75 1015.2
20260503003021 51 63 1.7 2.6 0.00 0.06 0.00 75 1015.2
20260503002521 51 53 1.7 2.6 0.00 0.06 0.00 75 1015.3
20260503002021 51 63 1.7 3.5 0.00 0.06 0.00 75 1015.4
20260503001521 51 54 1.7 3.5 0.00 0.06 0.00 75 1015.4
20260503001021 50 68 1.7 3.5 0.00 0.06 0.00 75 1015.4
20260503000521 50 88 1.7 3.5 0.00 0.06 0.00 75 1015.4
20260503000021 50 79 1.7 2.6 0.00 0.06 0.00 75 1015.5
20260502235521 50 60 1.7 2.6 0.00 0.06 0.00 75 1015.5
20260502235021 50 68 2.6 3.5 0.00 0.06 0.00 75 1015.6
20260502234521 50 79 2.6 3.5 0.00 0.06 0.00 75 1015.6
20260502234021 50 91 2.6 4.3 0.00 0.06 0.00 75 1015.6
20260502233522 50 88 1.7 3.5 0.00 0.06 0.00 76 1015.5
20260502233022 50 84 1.7 3.5 0.00 0.06 0.00 76 1015.6
20260502232522 50 81 1.7 2.6 0.00 0.06 0.00 76 1015.6
20260502232022 51 75 1.7 2.6 0.00 0.06 0.00 76 1015.6
20260502231522 51 73 1.7 3.5 0.00 0.06 0.00 76 1015.6
20260502231022 51 72 1.7 3.5 0.00 0.06 0.00 76 1015.5
20260502230522 51 72 1.7 3.5 0.00 0.06 0.00 76 1015.5
20260502230022 51 75 1.7 4.3 0.00 0.06 0.00 75 1015.4
20260502225522 51 72 1.7 2.6 0.00 0.06 0.00 76 1015.5
20260502225022 51 69 1.7 3.5 0.00 0.06 0.00 75 1015.5
20260502224522 52 89 2.6 3.5 0.00 0.06 0.00 75 1015.5
20260502224022 52 99 2.6 4.3 0.00 0.06 0.00 75 1015.5
20260502223522 52 83 1.7 4.3 0.00 0.06 0.00 75 1015.5
20260502223022 53 88 2.6 4.3 0.00 0.06 0.00 75 1015.5
20260502222522 53 62 3.5 5.2 0.00 0.06 0.00 75 1015.4
20260502222022 53 57 2.6 4.3 0.00 0.06 0.00 75 1015.4
20260502221522 53 52 1.7 4.3 0.00 0.06 0.00 75 1015.3
20260502221022 53 79 0.9 3.5 0.00 0.06 0.00 75 1015.3
20260502220522 53 79 1.7 3.5 0.00 0.06 0.00 75 1015.3
20260502220022 53 56 1.7 4.3 0.00 0.06 0.06 75 1015.3
20260502215522 53 62 2.6 3.5 0.00 0.06 0.06 75 1015.3
20260502215022 54 59 1.7 5.2 0.00 0.06 0.06 75 1015.4
20260502214522 54 68 1.7 3.5 0.00 0.06 0.06 75 1015.4
20260502214022 54 64 1.7 3.5 0.00 0.06 0.06 75 1015.4
20260502213522 54 58 1.7 3.5 0.00 0.06 0.06 75 1015.4
20260502213022 54 60 1.7 3.5 0.00 0.06 0.06 75 1015.3
20260502212522 54 63 0.9 2.6 0.00 0.06 0.06 75 1015.2
20260502212022 54 61 0.9 2.6 0.00 0.06 0.06 75 1015.2
20260502211522 54 55 1.7 2.6 0.00 0.06 0.06 75 1015.1
20260502211022 54 53 1.7 3.5 0.00 0.06 0.06 75 1015.1
20260502210522 54 65 0.9 3.5 0.00 0.06 0.06 75 1015.1
20260502210022 55 47 0.9 2.6 0.00 0.06 0.06 75 1015.1
20260502205522 55 59 1.7 2.6 0.00 0.06 0.06 75 1015.0
20260502205022 55 65 0.9 2.6 0.00 0.06 0.06 75 1015.0
20260502204522 55 56 0.9 2.6 0.00 0.06 0.06 75 1014.9
20260502204022 55 64 0.9 1.7 0.00 0.06 0.06 75 1014.9
20260502203522 56 63 0.0 0.9 0.00 0.06 0.06 75 1014.8
20260502203022 56 63 0.9 1.7 0.00 0.06 0.06 75 1014.8
20260502202522 56 59 0.9 1.7 0.00 0.06 0.06 75 1014.7
20260502202022 56 66 0.9 2.6 0.00 0.06 0.06 75 1014.7
20260502201522 56 64 0.9 1.7 0.00 0.06 0.06 75 1014.6
20260502201022 56 65 0.9 2.6 0.00 0.06 0.06 75 1014.5
20260502200522 56 66 1.7 2.6 0.00 0.06 0.06 75 1014.4
20260502200022 56 60 0.9 2.6 0.00 0.06 0.06 75 1014.4
20260502195522 57 56 0.9 2.6 0.00 0.06 0.06 75 1014.3
20260502195022 57 60 1.7 2.6 0.00 0.06 0.06 74 1014.4
20260502194522 57 60 2.6 3.5 0.00 0.06 0.06 74 1014.4
20260502194022 57 52 2.6 3.5 0.00 0.06 0.06 74 1014.5
20260502193522 57 44 3.5 4.3 0.01 0.06 0.06 74 1014.4
20260502193022 57 99 4.3 6.1 0.01 0.06 0.06 74 1014.3
20260502192522 57 101 4.3 7.0 0.01 0.06 0.06 74 1014.3
20260502192022 58 106 3.5 7.0 0.01 0.06 0.06 73 1014.3
20260502191522 58 95 3.5 5.2 0.01 0.06 0.06 73 1014.2
20260502191022 58 117 3.5 6.1 0.01 0.06 0.06 73 1014.2
20260502190522 58 90 3.5 5.2 0.01 0.06 0.06 73 1014.3
20260502190022 59 116 3.5 5.2 0.01 0.06 0.06 72 1014.3
20260502185522 59 94 3.5 6.1 0.01 0.06 0.06 71 1014.2
20260502185022 59 117 3.5 6.1 0.01 0.06 0.06 71 1014.2
20260502184522 60 110 4.3 6.1 0.01 0.06 0.06 71 1014.1
20260502184022 60 117 4.3 8.7 0.01 0.06 0.06 70 1014.0
20260502183522 60 101 2.6 6.1 0.00 0.05 0.05 71 1014.0
20260502183022 60 109 3.5 5.2 0.00 0.05 0.05 72 1013.9
20260502182523 60 118 3.5 7.8 0.00 0.05 0.05 71 1013.9
20260502182023 61 127 3.5 5.2 0.00 0.05 0.05 72 1013.8
20260502181523 60 133 3.5 5.2 0.00 0.05 0.05 72 1013.7
20260502181023 61 106 3.5 6.1 0.00 0.05 0.05 72 1013.7
20260502180523 61 96 2.6 5.2 0.00 0.05 0.05 73 1013.7
20260502164023 57 111 1.7 3.5 0.00 0.05 0.05 73 1014.0
20260502163523 56 120 2.6 4.3 0.00 0.05 0.05 73 1014.1
20260502163023 56 129 3.5 5.2 0.01 0.05 0.05 74 1014.1
20260502162523 56 133 3.5 6.1 0.01 0.05 0.05 74 1014.0
20260502162023 56 97 2.6 6.1 0.01 0.05 0.05 74 1014.1
20260502161523 56 90 2.6 4.3 0.02 0.05 0.05 73 1014.1
20260502161023 56 103 4.3 7.0 0.02 0.05 0.05 73 1014.0
20260502160523 55 135 5.2 7.8 0.02 0.05 0.05 74 1014.2
20260502152023 61 54 7.8 12.2 0.01 0.04 0.04 68 1014.2
20260502151523 61 75 7.8 11.3 0.00 0.03 0.03 69 1014.1
20260502151023 61 96 7.0 11.3 0.00 0.03 0.03 68 1014.1
20260502150523 61 131 6.1 8.7 0.00 0.03 0.03 69 1014.2
20260502130524 58 348 5.2 8.7 0.03 0.03 0.03 71 1015.2
20260502123524 60 70 14.8 24.3 0.03 0.03 0.03 67 1015.7
20260502123024 61 57 15.6 20.9 0.03 0.03 0.03 69 1015.5
20260502122524 62 55 13.9 24.3 0.03 0.03 0.03 66 1015.6
20260502122024 62 37 11.3 18.2 0.01 0.01 0.01 67 1015.5
20260502121524 61 10 11.3 20.9 0.01 0.01 0.01 67 1015.5
20260502121024 61 86 8.7 15.6 0.01 0.01 0.01 66 1015.5
20260502120524 62 75 7.0 11.3 0.00 0.00 0.00 68 1015.4
20260502115524 62 59 8.7 13.0 0.00 0.00 0.00 68 1015.4
20260502115024 62 70 9.6 15.6 0.00 0.00 0.00 67 1015.4
20260502114524 62 58 8.7 14.8 0.00 0.00 0.00 67 1015.4
20260502114024 62 83 7.8 14.8 0.00 0.00 0.00 70 1015.5
20260502113524 61 117 7.8 13.9 0.00 0.00 0.00 72 1015.6
20260502113024 61 25 8.7 13.9 0.00 0.00 0.00 71 1015.7
20260502112524 61 112 8.7 14.8 0.00 0.00 0.00 71 1015.8
20260502112024 60 79 7.0 12.2 0.00 0.00 0.00 72 1015.9
20260502111524 60 89 6.1 11.3 0.00 0.00 0.00 72 1015.9
20260502111024 60 60 5.2 12.2 0.00 0.00 0.00 73 1015.9
20260502110524 59 55 4.3 8.7 0.00 0.00 0.00 74 1016.1
20260502110024 59 27 4.3 8.7 0.00 0.00 0.00 73 1016.2
20260502105524 58 27 3.5 8.7 0.00 0.00 0.00 67 1016.4
20260502105024 57 33 3.5 5.2 0.00 0.00 0.00 67 1016.5
20260502104524 56 358 3.5 7.8 0.00 0.00 0.00 68 1016.7
20260502104024 56 41 4.3 7.8 0.00 0.00 0.00 69 1016.8
20260502103524 56 338 5.2 10.4 0.00 0.00 0.00 70 1017.1
20260502103024 56 338 6.1 10.4 0.00 0.00 0.00 70 1017.2
20260502102524 56 71 6.1 13.0 0.00 0.00 0.00 71 1017.3
20260502102024 57 47 5.2 10.4 0.00 0.00 0.00 72 1017.5
20260502101524 56 32 3.5 11.3 0.00 0.00 0.00 72 1017.6
20260502101024 56 11 1.7 7.8 0.00 0.00 0.00 71 1017.6
20260502100524 56 51 2.6 3.5 0.00 0.00 0.00 73 1017.4
20260502091524 60 330 4.3 8.7 0.00 0.00 0.00 74 1016.6
20260502091024 60 14 4.3 7.0 0.00 0.00 0.00 74 1016.6
20260502090524 60 14 4.3 7.8 0.00 0.00 0.00 71 1016.7
20260502071525 56 342 1.7 4.3 0.00 0.00 0.00 32 1017.1
20260502071025 56 288 1.7 5.2 0.00 0.00 0.00 33 1017.0
20260502070525 55 349 1.7 5.2 0.00 0.00 0.00 33 1017.0
20260502070025 55 308 0.9 3.5 0.00 0.00 0.00 34 1017.1
20260502065525 55 282 0.9 1.7 0.00 0.00 0.00 34 1017.2
20260502065025 54 258 0.0 1.7 0.00 0.00 0.00 34 1017.3
20260502064525 54 269 0.0 0.9 0.00 0.00 0.00 34 1017.3
20260502064025 54 302 0.9 0.9 0.00 0.00 0.00 35 1017.3
20260502063525 53 295 0.0 0.9 0.00 0.00 0.00 35 1017.3